This demonstration page uses our WeatherBlox Daily Observations layout. Learn more.

Left ArrowRight Arrow

Hourly Observations for November 11, 2019

Temp ( °F °C ) Dew Point ( °F °C ) Humidity (%) Winds ( mph kmh ) Pressure ( in mb ) Visibility ( mi km ) Precip ( " mm )
12:53 am 00:53 Clear 42 5.6 39 3.9 89 89 Calm 30.15 1021 10 16 0.00 0.00
1:53 am 01:53 Clear 41 5 39 3.9 93 93 Calm 30.14 1021 10 16 0.00 0.00
2:53 am 02:53 Clear 40 4.4 38 3.3 93 93 Calm 30.14 1021 9 14 0.00 0.00
3:53 am 03:53 Clear 39 3.9 37 2.8 93 93 Calm 30.12 1020 9 14 0.00 0.00
4:53 am 04:53 Clear 39 3.9 37 2.8 93 93 Calm 30.13 1020 9 14 0.00 0.00
6:53 am 06:53 Clear 38 3.3 36 2.2 93 93 Calm 30.16 1022 9 14 0.00 0.00
7:53 am 07:53 Sunny 39 3.9 37 2.8 93 93 Calm 30.18 1022 10 16 0.00 0.00
9:53 am 09:53 Sunny 52 11.1 43 6.1 72 72 SW 5 7 30.19 1022 10 16 0.00 0.00
10:53 am 10:53 Sunny 58 14.4 44 6.7 60 60 SW 5 7 30.17 1022 10 16 0.00 0.00
11:53 am 11:53 Sunny 61 16.1 43 6.1 52 52 WSW 8 13 30.14 1021 10 16 0.00 0.00
12:53 pm 12:53 Sunny 64 17.8 46 7.8 52 52 WSW 8 13 30.11 1020 10 16 0.00 0.00
1:53 pm 13:53 Sunny 66 18.9 45 7.2 47 47 WSW 9 15 30.07 1018 10 16 0.00 0.00
2:53 pm 14:53 Sunny 67 19.4 43 6.1 42 42 VRB 7 11 30.06 1018 10 16 0.00 0.00
3:53 pm 15:53 Sunny 66 18.9 43 6.1 43 43 S 6 9 30.04 1017 10 16 0.00 0.00
4:53 pm 16:53 Sunny 65 18.3 43 6.1 45 45 SSW 5 7 30.04 1017 10 16 0.00 0.00
5:53 pm 17:53 Clear 60 15.6 46 7.8 60 60 Calm 30.04 1017 10 16 0.00 0.00
6:53 pm 18:53 Mostly Clear 58 14.4 48 8.9 70 70 Calm 30.03 1017 10 16 0.00 0.00
7:53 pm 19:53 Partly Cloudy 56 13.3 49 9.4 77 77 Calm 30.04 1017 10 16 0.00 0.00
8:53 pm 20:53 Mostly Clear 55 12.8 49 9.4 80 80 Calm 30.04 1017 10 16 0.00 0.00
9:53 pm 21:53 Cloudy 56 13.3 49 9.4 77 77 Calm 30.04 1017 10 16 0.00 0.00
10:53 pm 22:53 Cloudy with Light Rain 56 13.3 52 11.1 87 87 Calm 30.02 1017 10 16 0.01 0.25
11:53 pm 23:53 Cloudy with Light Rain 54 12.2 53 11.7 97 97 N 3 6 30.00 1016 10 16 0.01 0.25

Powered by AerisWeather